Location: Hastringsfeld
(50.9620°N, 10.4787°E)
Time: 09:29:07
(UTC+00:00)

Resurs 1-4 Rocket - Pass Details

Date: 26 September 2023
Orbit: 800 x 812 km, 98.7° (Epoch: 09 December)

Event Time Altitude Azimuth Distance (km) Brightness Sun altitude
Rises 23:58:00 0° 25° (NNE) 3,322 6.2 -39.1°
Reaches altitude 10° 00:00:55 10° 41° (NE) 2,387 5.1 -38.9°
Enters shadow 00:02:44 17° 59° (ENE) 1,948 4.5 -38.9°
